Date String (YYYY-MM-DD hh:mm:ss) UTC,Instrument flags,Ambient pressure (hPa),Sample flow (lpm),Bypass flow (lpm),Sample temperature (°C),Ambient temperature (°C),ASC tube jacket temperature (°C),LED temperature (°C),Box temperature (°C),Sample RH (%),Span deviation,Mass concentration (μg/m³),Mass concentration (μg/m³),Mass concentration (μg/m³)
DateTimeUTC,F1_M11,P_M11,Q1_M11,Q2_M11,T1_M11,T2_M11,T3_M11,T4_M11,T5_M11,U1_M11,ZSPAN_M11,X0_M11,X2_M11,X1_M11
2022-01-03 13:00:00,,0826.5,4.99,0.00,21.7,21.2,00.0,30.8,23.2,09.0,0000.0,0001.63,0000.05,0000.00
2022-01-03 13:01:00,,0826.4,5.00,0.00,21.6,21.1,00.0,30.8,23.1,09.1,0000.0,0001.59,0000.05,0000.00
2022-01-03 13:02:00,,0826.4,5.01,0.00,21.5,20.9,00.0,30.7,23.1,08.6,0000.0,0001.59,0000.05,0000.00
2022-01-03 13:03:00,,0826.4,4.99,0.00,21.5,20.8,00.0,30.7,23.0,09.0,0000.0,0001.59,0000.05,0000.00
2022-01-03 13:04:00,,0826.4,4.99,0.00,21.4,20.7,00.0,30.7,23.0,08.9,0000.0,0001.59,0000.05,0000.00
2022-01-03 13:05:00,,0826.4,5.01,0.00,21.4,20.7,00.0,30.7,22.9,09.0,0000.0,0001.45,0000.04,0000.00
2022-01-03 13:06:00,,0826.3,4.98,0.00,21.4,20.6,00.0,30.6,22.9,09.0,0000.0,0001.33,0000.03,0000.00
2022-01-03 13:07:00,,0826.4,5.01,0.00,21.3,20.5,00.0,30.6,22.8,08.8,0000.0,0001.11,0000.03,0000.00
2022-01-03 13:08:00,,0826.4,5.00,0.00,21.3,20.5,00.0,30.6,22.8,08.9,0000.0,0000.17,0000.03,0000.00
2022-01-03 13:09:00,,0826.4,5.00,0.00,21.3,20.8,00.0,30.6,22.9,08.9,0000.0,0000.17,0000.03,0000.00
2022-01-03 13:10:00,,0826.5,5.01,0.00,21.5,21.8,00.0,30.6,23.3,08.9,0000.0,0000.16,0000.03,0000.00
2022-01-03 13:11:00,,0826.4,5.00,0.00,21.7,22.8,00.0,30.6,23.6,08.6,0000.0,0000.01,0000.01,0000.00
2022-01-03 13:12:00,,0826.3,4.99,0.00,21.8,22.8,00.0,30.7,23.7,08.5,0000.0,0000.00,0000.00,0000.00
2022-01-03 13:13:00,,0826.3,5.01,0.00,21.8,22.4,00.0,30.7,23.6,08.3,0000.0,0000.00,0000.00,0000.00
2022-01-03 13:14:00,,0826.2,5.00,0.00,21.7,22.1,00.0,30.7,23.4,08.7,0000.0,0000.00,0000.00,0000.00
2022-01-03 13:15:00,,0826.2,5.00,0.00,21.7,21.7,00.0,30.7,23.3,08.8,0000.0,0000.00,0000.00,0000.00
2022-01-03 13:16:00,,0826.2,4.99,0.00,21.6,21.5,00.0,30.7,23.2,08.9,0000.0,0000.00,0000.00,0000.00
2022-01-03 13:17:00,,0826.2,5.00,0.00,21.6,21.2,00.0,30.7,23.2,08.8,0000.0,0000.00,0000.00,0000.00
2022-01-03 13:18:00,,0826.2,5.00,0.00,21.6,21.1,00.0,30.7,23.1,09.1,0000.0,0000.00,0000.00,0000.00
2022-01-03 13:19:00,,0826.2,5.00,0.00,21.5,20.9,00.0,30.6,23.0,08.8,0000.0,0000.01,0000.00,0000.00
2022-01-03 13:20:00,,0826.2,5.00,0.00,21.5,20.8,00.0,30.6,22.9,09.0,0000.0,0000.08,0000.03,0000.00
2022-01-03 13:21:00,,0826.2,5.00,0.00,21.4,20.8,00.0,30.6,22.9,08.9,0000.0,0000.08,0000.03,0000.00
2022-01-03 13:22:00,,0826.3,5.00,0.00,21.4,20.7,00.0,30.6,22.9,08.9,0000.0,0000.08,0000.03,0000.00
2022-01-03 13:23:00,,0826.3,5.01,0.00,21.3,20.7,00.0,30.6,22.9,09.1,0000.0,0000.10,0000.04,0000.00
2022-01-03 13:24:00,,0826.3,4.99,0.00,21.3,20.6,00.0,30.5,22.8,09.2,0000.0,0000.17,0000.06,0000.00
2022-01-03 13:25:00,,0826.3,5.00,0.00,21.3,20.5,00.0,30.5,22.8,09.2,0000.0,0000.18,0000.06,0000.00
2022-01-03 13:26:00,,0826.3,5.00,0.00,21.3,20.8,00.0,30.5,22.9,09.1,0000.0,0000.18,0000.06,0000.00
2022-01-03 13:27:00,,0826.4,5.00,0.00,21.4,21.7,00.0,30.5,23.2,09.0,0000.0,0000.18,0000.06,0000.00
2022-01-03 13:28:00,,0826.3,5.00,0.00,21.6,22.7,00.0,30.6,23.6,09.1,0000.0,0000.18,0000.06,0000.00
2022-01-03 13:29:00,,0826.4,5.00,0.00,21.8,22.8,00.0,30.6,23.7,09.1,0000.0,0000.18,0000.06,0000.00
2022-01-03 13:30:00,,0826.2,5.01,0.00,21.8,22.5,00.0,30.7,23.6,08.7,0000.0,0000.18,0000.06,0000.00
2022-01-03 13:31:00,,0826.4,4.98,0.00,21.8,22.2,00.0,30.7,23.5,08.7,0000.0,0000.11,0000.04,0000.00
2022-01-03 13:32:00,,0826.4,5.00,0.00,21.8,22.0,00.0,30.7,23.5,09.3,0000.0,0000.10,0000.03,0000.00
2022-01-03 13:33:00,,0826.3,5.00,0.00,21.8,21.8,00.0,30.7,23.4,09.3,0000.0,0000.10,0000.03,0000.00
2022-01-03 13:34:00,,0826.3,5.00,0.00,21.8,21.7,00.0,30.7,23.4,08.9,0000.0,0000.13,0000.04,0000.00
2022-01-03 13:35:00,,0826.3,5.01,0.00,21.8,21.5,00.0,30.7,23.4,09.0,0000.0,0000.07,0000.02,0000.00
2022-01-03 13:36:00,,0826.2,4.99,0.00,21.8,21.4,00.0,30.7,23.3,08.9,0000.0,0000.05,0000.02,0000.00
2022-01-03 13:37:00,,0826.2,5.00,0.00,21.7,21.3,00.0,30.7,23.3,08.3,0000.0,0000.05,0000.02,0000.00
2022-01-03 13:38:00,,0826.2,5.01,0.00,21.7,21.2,00.0,30.7,23.3,08.6,0000.0,0000.05,0000.02,0000.00
2022-01-03 13:39:00,,0826.2,4.98,0.00,21.7,21.1,00.0,30.7,23.3,09.0,0000.0,0000.05,0000.02,0000.00
2022-01-03 13:40:00,,0826.2,5.01,0.00,21.7,21.1,00.0,30.7,23.3,09.1,0000.0,0000.05,0000.02,0000.00
2022-01-03 13:41:00,,0826.1,4.99,0.00,21.7,21.1,00.0,30.7,23.3,08.8,0000.0,0000.05,0000.02,0000.00
2022-01-03 13:42:00,,0826.2,5.01,0.00,21.7,21.0,00.0,30.7,23.2,08.8,0000.0,0000.05,0000.02,0000.00
2022-01-03 13:43:00,,0826.1,5.01,0.00,21.6,21.0,00.0,30.7,23.2,09.1,0000.0,0000.05,0000.02,0000.00
2022-01-03 13:44:00,,0826.2,4.99,0.00,21.6,21.0,00.0,30.7,23.2,09.3,0000.0,0000.05,0000.02,0000.00
2022-01-03 13:45:00,,0826.2,5.00,0.00,21.6,21.0,00.0,30.7,23.2,09.5,0000.0,0000.01,0000.01,0000.00
2022-01-03 13:46:00,,0826.2,4.99,0.00,21.6,20.9,00.0,30.7,23.2,09.2,0000.0,0000.00,0000.00,0000.00
2022-01-03 13:47:00,,0826.2,5.01,0.00,21.6,21.0,00.0,30.7,23.2,08.7,0000.0,0000.00,0000.00,0000.00
2022-01-03 13:48:00,,0826.2,5.00,0.00,21.7,21.7,00.0,30.7,23.4,09.2,0000.0,0000.00,0000.00,0000.00
2022-01-03 13:49:00,,0826.2,4.99,0.00,21.9,22.6,00.0,30.8,23.8,09.3,0000.0,0000.00,0000.00,0000.00
2022-01-03 13:50:00,,0826.1,5.00,0.00,22.0,23.1,00.0,30.8,24.0,09.2,0000.0,0000.00,0000.00,0000.00
2022-01-03 13:51:00,,0826.2,5.01,0.00,22.1,22.8,00.0,30.8,24.0,09.2,0000.0,0000.00,0000.00,0000.00
2022-01-03 13:52:00,,0826.2,5.00,0.00,22.1,22.5,00.0,30.9,23.9,09.3,0000.0,0000.00,0000.00,0000.00
2022-01-03 13:53:00,,0826.2,5.00,0.00,22.1,22.3,00.0,30.9,23.8,08.9,0000.0,0000.00,0000.00,0000.00
2022-01-03 13:54:00,,0826.2,5.00,0.00,22.0,22.0,00.0,30.9,23.7,08.9,0000.0,0000.00,0000.00,0000.00
2022-01-03 13:55:00,,0826.2,4.99,0.00,22.0,21.8,00.0,30.9,23.7,09.1,0000.0,0000.03,0000.02,0000.00
2022-01-03 13:56:00,,0826.1,5.01,0.00,22.0,21.7,00.0,30.9,23.6,09.2,0000.0,0000.03,0000.02,0000.00
2022-01-03 13:57:00,,0826.2,4.98,0.00,22.0,21.6,00.0,30.9,23.6,09.0,0000.0,0000.03,0000.02,0000.00
2022-01-03 13:58:00,,0826.2,5.01,0.00,21.9,21.5,00.0,30.9,23.6,09.1,0000.0,0000.03,0000.02,0000.00
2022-01-03 13:59:00,,0826.1,4.99,0.00,21.9,21.4,00.0,30.9,23.6,09.3,0000.0,0000.03,0000.02,0000.00
